This is the latest recevied weather packets stored in our database for station/object IZ5MMH-4. If no packets are shown the sender has not sent any weather packets the latest 10 day(s).
| Time | Temp. | Humidity | Pressure | Rain* | Wind** | Luminosity | Snow |
|---|---|---|---|---|---|---|---|
| 1787688263 | 27.78° C | 81% | 1015.5 hPa | - | - | - | - |
| 1787687663 | 27.78° C | 79% | 1015.6 hPa | - | - | - | - |
| 1787687063 | 27.78° C | 78% | 1015.6 hPa | - | - | - | - |
| 1787686463 | 27.78° C | 77% | 1015.3 hPa | - | - | - | - |
| 1787685864 | 27.78° C | 77% | 1015.3 hPa | - | - | - | - |
| 1787685264 | 28.33° C | 76% | 1015.1 hPa | - | - | - | - |
| 1787684663 | 28.33° C | 73% | 1014.9 hPa | - | - | - | - |
| 1787684064 | 28.33° C | 74% | 1015 hPa | - | - | - | - |
| 1787683464 | 28.33° C | 74% | 1015 hPa | - | - | - | - |
| 1787682863 | 28.33° C | 73% | 1014.7 hPa | - | - | - | - |
| 1787682264 | 28.33° C | 73% | 1014.5 hPa | - | - | - | - |
| 1787681664 | 28.33° C | 71% | 1014.5 hPa | - | - | - | - |
| 1787681064 | 28.89° C | 71% | 1014.5 hPa | - | - | - | - |
| 1787680464 | 28.89° C | 70% | 1014.4 hPa | - | - | - | - |
| 1787679864 | 28.89° C | 69% | 1014.2 hPa | - | - | - | - |
| 1787679263 | 29.44° C | 69% | 1014.2 hPa | - | - | - | - |
| 1787678664 | 29.44° C | 67% | 1014.1 hPa | - | - | - | - |
| 1787678064 | 29.44° C | 67% | 1014.1 hPa | - | - | - | - |
| 1787677464 | 29.44° C | 67% | 1014.2 hPa | - | - | - | - |
| 1787676864 | 29.44° C | 67% | 1014.3 hPa | - | - | - | - |
| 1787676264 | 30° C | 65% | 1014.2 hPa | - | - | - | - |
| 1787675663 | 30° C | 65% | 1014.1 hPa | - | - | - | - |
| 1787675064 | 30° C | 64% | 1014.1 hPa | - | - | - | - |
| 1787674464 | 30.56° C | 62% | 1014.1 hPa | - | - | - | - |
| 1787673864 | 31.11° C | 64% | 1013.8 hPa | - | - | - | - |
* Rain since midnight (hover to see other rain measurements)
** Current wind speed in m/s (hover to see current wind gust speed)